Theta_e
322 320 318 318 317 316 316 315 316 316 317 317 317 317 317 317 317 317 317 318 319 320 320 320 321 320 309 298 299 317 324 317 313 310 305 303 298 294 291 292 295 292 293 297 298 298 297
319 318 317 316 315 314 315 315 314 315 315 316 316 315 315 315 315 315 316 317 318 320 319 319 320 319 303 289 312 320 312 310 309 307 304 303 300 300 295 295 293 294 296 296 297 296 297
318 317 315 314 313 314 314 313 313 313 314 314 314 314 313 313 314 314 315 316 318 319 318 319 319 312 299 295 310 314 309 307 307 307 303 305 304 297 297 293 298 296 292 294 294 295 295
316 314 313 313 313 313 313 312 312 313 313 313 313 312 312 312 313 313 314 316 318 318 317 318 317 305 291 307 311 309 308 306 308 309 308 307 306 300 297 298 296 292 290 286 290 295 295
313 312 312 312 312 312 312 312 312 312 312 312 312 311 311 312 312 313 313 316 318 316 316 317 304 298 291 311 305 308 307 305 306 307 307 310 304 298 298 290 285 285 281 283 286 294 292
311 311 311 311 311 311 311 311 311 311 311 311 310 310 310 311 312 312 314 315 316 313 311 310 305 292 297 296 303 306 306 306 302 303 301 301 296 291 290 285 278 279 283 283 282 287 290
311 310 310 310 310 310 310 310 310 310 310 310 309 309 310 310 311 312 310 297 291 289 296 291 292 293 298 302 304 302 304 302 301 297 288 295 289 285 287 290 287 284 282 283 285 289 288
309 309 309 309 309 309 309 310 310 310 310 309 309 309 309 310 311 313 303 296 297 295 290 297 297 297 299 301 295 298 304 294 294 288 291 288 285 289 291 290 290 288 284 284 286 288 287
308 308 308 308 308 309 309 309 309 309 309 308 308 309 310 311 312 305 301 299 304 302 289 292 299 297 297 299 294 294 300 296 292 289 289 285 288 292 290 287 286 284 282 282 284 286 286
307 307 307 308 308 308 308 308 308 308 308 307 308 310 311 311 301 300 300 305 305 302 282 286 293 296 297 297 291 301 302 296 292 289 288 288 291 290 288 287 287 282 287 287 285 282 278
306 307 307 308 307 307 307 308 308 308 307 307 309 310 311 308 296 299 303 305 304 294 271 289 293 301 299 293 294 295 301 296 290 289 288 287 286 286 286 288 288 286 288 285 285 282 279
306 306 307 306 306 306 307 307 307 307 307 308 309 310 311 303 301 302 305 304 297 281 270 287 292 292 291 292 293 295 295 297 295 290 289 288 291 289 289 290 289 289 285 284 283 281 274
306 306 305 306 306 306 306 306 306 306 307 308 309 310 307 305 296 303 303 294 280 273 285 284 286 288 286 288 289 291 290 288 285 280 279 284 286 290 290 286 288 287 282 275 273 274 274
305 305 305 305 305 305 305 305 305 306 307 307 308 307 305 304 301 302 295 283 274 280 282 289 288 287 283 286 286 289 287 285 288 284 280 278 279 286 289 288 284 284 282 276 272 271 274
304 305 304 304 304 304 304 304 305 305 306 307 305 298 298 300 303 300 287 275 276 282 287 286 285 278 279 283 282 283 284 285 286 287 282 279 280 287 289 288 288 282 280 284 278 275 272
304 304 304 304 303 303 304 304 304 305 307 306 294 295 294 300 302 292 281 281 283 289 289 287 280 281 277 281 281 281 278 284 284 286 285 282 278 284 286 287 288 285 286 278 278 273 272
305 304 303 303 302 303 303 304 304 304 305 304 291 289 295 297 297 286 277 280 286 290 289 285 282 281 281 280 281 279 279 283 284 286 285 283 280 281 283 282 282 282 281 282 280 278 274
304 302 302 302 302 302 303 303 303 304 305 297 287 281 295 296 286 282 281 283 290 288 288 287 287 285 281 282 280 280 280 282 283 284 280 283 280 275 280 284 285 283 282 282 277 276 277
302 302 301 301 302 302 302 302 302 303 303 290 285 285 292 290 278 277 279 282 285 283 282 284 285 285 283 281 278 280 280 284 282 281 279 283 279 273 277 278 282 280 281 282 282 280 276
301 301 301 301 301 302 302 302 301 302 302 289 283 279 281 282 280 276 276 278 280 284 281 282 281 281 279 278 281 278 278 281 282 282 287 285 282 279 274 277 279 279 281 282 281 277 276
301 300 300 301 301 301 301 302 301 301 300 287 280 277 279 274 277 276 277 278 277 277 280 280 279 278 276 273 274 274 277 277 280 282 279 278 273 276 276 280 281 281 280 281 279 280 278
300 300 300 301 301 301 301 301 301 301 297 285 279 277 279 277 278 275 277 275 277 277 277 277 276 276 276 274 275 273 275 274 274 278 277 277 271 274 272 275 276 277 280 279 279 279 280
300 301 300 300 300 300 300 301 301 300 294 283 283 283 279 278 275 274 274 275 277 278 279 280 277 275 275 277 278 278 279 279 278 275 274 273 272 271 267 272 273 270 274 276 275 276 277
301 300 299 299 299 299 300 300 300 300 294 286 283 281 277 275 276 276 278 278 278 278 276 278 278 275 279 282 280 279 276 277 277 276 277 273 272 272 267 271 263 272 279 278 275 276 279
299 299 298 299 298 298 299 300 300 300 298 287 285 281 277 273 277 277 276 277 276 276 276 277 279 281 281 278 274 272 272 272 272 276 277 279 274 270 268 267 270 272 275 274 273 272 277
298 298 298 299 298 298 299 299 300 300 298 288 286 285 280 273 274 279 276 275 273 271 273 277 281 282 280 277 275 269 267 270 269 271 277 277 276 272 271 267 265 271 276 278 279 268 274
297 298 298 299 298 298 298 298 298 299 298 289 287 287 282 273 278 278 274 275 277 275 274 275 277 278 279 275 272 270 269 272 266 267 268 269 271 268 268 267 269 272 275 278 268 266 273
297 297 297 298 297 297 299 299 298 298 298 291 287 288 283 273 278 281 281 277 278 276 274 275 274 274 273 271 272 272 268 272 269 270 269 267 266 266 268 265 264 272 274 268 269 272 272
297 297 296 296 297 296 297 298 298 298 299 294 284 289 290 285 279 283 285 285 284 283 279 277 275 275 276 271 273 275 271 270 268 266 272 266 267 268 268 268 271 272 271 272 272 271 271
Wind_Speed
12 14 14 12 12 12 13 13 14 15 15 16 17 17 17 18 18 18 18 17 16 15 13 10 8 8 3 1 5 2 4 3 3 3 4 3 4 2 2 1 4 2 3 2 5 6 6
14 13 11 11 12 12 13 14 15 15 16 17 17 18 18 18 18 18 18 17 16 15 12 7 5 6 0 1 1 4 3 3 4 4 5 5 2 2 3 3 3 2 4 7 8 3 4
12 11 10 11 11 13 14 14 15 16 17 17 18 18 18 19 19 19 18 18 17 13 8 4 2 1 2 6 3 3 2 1 1 2 3 2 1 1 2 1 2 2 7 8 6 3 5
10 10 10 12 12 13 14 15 16 17 17 18 18 19 19 20 20 20 19 19 16 8 3 1 1 1 4 2 2 2 1 2 3 3 3 1 3 3 1 3 3 3 2 4 1 4 1
8 9 10 11 13 14 15 16 17 18 18 19 20 20 21 21 21 20 18 18 7 1 2 2 2 2 5 3 0 3 2 2 3 2 3 2 3 2 2 3 4 4 4 4 9 6 3
8 9 10 12 13 14 15 16 17 18 19 20 21 22 22 22 21 21 19 8 1 2 1 0 1 3 1 1 1 2 1 2 2 2 3 4 5 2 3 3 5 5 4 4 6 1 2
9 9 10 12 13 15 16 17 17 18 19 21 22 23 22 21 21 20 10 3 6 3 4 2 1 3 0 1 2 2 2 3 2 4 1 2 3 7 8 7 0 2 4 6 6 5 4
9 10 11 12 13 15 16 17 18 20 21 22 22 22 21 20 19 19 2 6 2 2 7 2 3 3 5 2 2 2 2 3 2 2 2 4 8 5 3 4 6 6 4 9 8 5 7
9 10 11 12 14 15 16 18 19 20 21 22 23 22 20 19 17 5 5 3 2 3 0 6 3 0 0 4 3 3 6 2 3 2 5 6 5 3 4 4 5 4 6 6 9 3 4
8 9 10 12 14 16 18 19 20 20 21 23 23 19 18 20 5 3 3 6 5 1 6 3 2 2 2 2 1 1 5 2 2 3 4 6 5 4 4 6 6 7 8 11 4 2 5
7 9 11 13 15 17 18 19 20 21 22 23 21 18 15 13 1 4 5 6 4 3 5 2 1 2 1 1 1 0 1 1 3 2 3 9 2 4 5 9 8 11 4 5 3 3 3
7 9 11 14 14 16 18 20 21 22 22 24 18 15 10 4 3 0 6 5 3 9 6 4 2 2 3 1 1 1 2 2 1 3 3 9 4 4 9 6 9 1 1 3 4 4 1
7 9 12 12 15 17 19 20 22 23 23 24 17 12 4 1 2 6 4 3 8 6 5 7 5 6 5 4 2 3 2 1 4 3 3 5 5 4 3 2 3 4 5 4 4 1 8
8 10 11 14 16 18 20 21 22 23 23 22 15 5 4 1 3 3 3 6 4 3 3 3 5 8 4 8 2 1 0 4 7 3 1 2 12 5 4 6 6 6 8 7 7 4 6
8 9 11 14 17 19 20 21 23 24 23 20 7 3 3 4 5 2 6 5 4 0 3 6 7 3 5 3 5 6 2 5 3 6 6 3 9 3 5 3 6 2 5 5 2 1 2
7 9 12 14 17 19 21 23 24 24 23 15 2 2 3 7 2 4 7 1 1 3 3 3 1 2 3 6 7 6 2 6 9 6 3 5 7 5 3 1 5 6 3 0 1 3 6
9 10 13 14 17 19 21 23 25 25 23 7 4 4 4 7 3 7 4 1 2 2 5 4 2 4 3 4 3 3 6 5 9 10 6 4 5 9 1 7 9 2 4 4 3 4 6
9 10 12 14 17 19 21 23 26 25 21 7 3 3 4 4 6 2 2 2 5 5 9 5 4 3 3 6 4 4 4 4 12 9 7 5 4 6 13 7 4 4 8 7 4 6 4
8 10 12 13 16 18 22 25 26 24 17 2 3 1 4 4 4 2 4 4 5 8 6 6 4 5 6 4 6 4 5 2 16 11 12 9 4 5 10 5 2 1 2 1 5 2 7
8 10 11 13 15 19 22 24 26 24 15 5 4 3 6 7 2 4 3 4 4 5 3 4 6 5 5 4 4 7 8 6 18 12 19 10 6 9 12 11 2 12 10 10 3 5 5
9 9 10 12 15 18 21 24 27 26 15 6 5 1 2 3 5 5 3 3 3 8 5 7 4 7 3 4 7 6 8 14 5 11 5 3 8 11 19 14 13 12 11 10 8 9 10
8 9 10 12 15 18 20 23 27 28 9 7 4 3 4 2 2 3 6 4 3 3 3 2 3 7 4 4 6 13 10 7 9 11 13 4 12 12 17 16 18 21 15 10 10 8 9
8 8 10 12 14 16 18 20 24 27 11 5 2 2 4 5 2 3 0 2 2 3 2 1 3 3 6 4 8 12 13 17 18 14 18 13 13 12 20 10 14 14 4 3 8 11 5
7 8 10 11 13 14 15 17 19 21 12 4 1 3 4 1 2 2 2 1 1 3 3 6 5 2 4 8 8 8 8 15 12 8 4 5 8 10 11 6 8 6 8 12 14 10 8
8 8 9 9 11 12 14 15 15 17 14 4 1 4 3 3 0 2 1 1 3 5 2 3 3 4 5 5 3 5 4 5 2 6 3 5 3 4 4 7 4 6 10 7 5 7 14
7 6 5 7 10 11 11 12 14 14 9 4 3 3 4 5 3 2 1 2 2 3 7 4 5 5 3 1 2 3 3 3 5 6 5 3 4 0 6 4 2 4 12 17 7 4 14
6 5 6 8 8 8 8 10 10 10 8 4 2 3 4 3 3 4 3 3 3 1 3 4 6 6 3 2 3 3 3 2 3 4 6 5 3 2 4 4 5 10 14 10 4 5 16
5 5 5 6 5 6 9 9 9 9 5 4 1 1 4 3 4 3 4 4 1 1 2 4 4 2 3 2 3 2 1 2 3 4 6 3 4 3 3 4 2 20 6 7 7 10 12
5 4 4 4 4 6 6 9 9 8 7 4 1 2 1 1 5 3 6 6 7 10 4 2 3 1 3 1 2 2 3 1 2 3 5 3 3 4 4 3 8 9 12 9 9 11 13
Wind_Direction
66 48 40 31 27 22 16 12 6 0 358 356 353 350 346 341 339 336 335 333 329 328 321 316 316 323 345 12 255 180 118 20 3 26 49 53 63 109 120 320 337 202 290 287 273 281 254
55 49 40 31 21 12 9 7 2 358 356 353 350 347 343 338 334 333 333 331 325 324 321 313 309 319 289 251 52 139 116 42 38 35 25 32 112 164 137 187 171 232 260 266 271 252 236
55 42 28 24 14 10 7 4 360 357 354 350 347 343 339 335 332 331 331 327 321 316 311 301 312 3 64 236 351 130 74 61 48 80 90 22 102 92 142 292 338 328 323 319 223 195 221
44 31 22 18 13 10 7 4 359 355 352 347 344 340 336 333 330 330 331 325 316 294 301 251 60 80 235 345 100 105 92 42 43 56 88 113 57 95 132 306 18 355 47 352 293 143 260
34 26 20 16 12 9 6 3 357 353 350 346 342 339 336 332 329 328 330 325 318 190 103 145 79 94 286 328 196 252 151 117 106 68 36 95 49 78 37 78 4 3 249 221 316 198 130
34 31 23 16 11 9 5 1 356 351 348 345 342 338 335 331 328 327 330 320 22 89 75 249 22 52 319 342 229 124 165 122 88 63 33 48 45 66 47 96 228 231 242 245 244 239 189
44 36 27 15 11 8 4 359 354 350 349 345 341 337 333 330 328 328 341 27 17 344 38 220 223 264 31 346 29 45 139 108 62 59 45 11 50 225 221 210 256 295 218 251 240 222 209
45 32 22 17 11 6 3 358 354 351 348 345 340 336 331 330 328 325 43 61 49 201 315 302 247 269 247 209 335 223 110 126 135 203 133 16 244 229 215 190 222 232 259 264 288 241 178
50 35 24 16 9 4 -0 357 353 349 346 344 341 338 334 329 322 22 79 58 325 158 280 307 264 281 45 136 239 263 143 140 183 197 193 184 228 68 154 210 223 207 203 242 232 349 262
48 40 26 14 8 2 358 355 351 348 347 344 344 342 344 332 63 316 63 323 331 135 51 289 355 8 42 91 272 57 191 155 232 234 192 235 273 231 222 247 165 282 217 252 242 110 246
57 33 22 13 8 1 357 355 353 350 348 346 343 345 349 26 184 50 313 320 314 56 28 295 347 297 39 164 304 37 176 47 241 240 120 254 262 238 225 224 162 235 165 187 193 190 9
49 31 21 13 6 2 358 354 352 350 349 346 344 343 353 16 27 26 318 316 48 46 264 352 342 343 351 144 265 52 49 8 292 305 239 246 301 241 221 220 192 59 17 47 50 116 258
38 32 21 13 8 3 358 354 351 351 349 345 341 340 33 51 300 322 339 41 35 119 291 337 334 358 349 266 267 166 156 273 225 345 290 316 229 258 201 266 176 148 80 314 328 343 231
53 33 24 15 8 2 357 355 352 349 347 343 336 359 338 222 304 351 58 50 93 275 0 346 333 316 254 8 345 46 211 276 246 207 307 234 310 193 177 202 194 182 163 171 236 230 262
46 38 23 15 6 2 360 357 354 352 348 342 342 354 19 322 339 54 71 64 205 21 315 341 322 20 319 11 16 4 238 247 278 184 197 195 266 276 217 218 150 196 185 208 226 121 33
57 39 27 15 9 5 3 359 357 353 349 349 58 43 327 317 335 62 70 140 79 48 337 13 278 20 308 333 353 352 301 12 335 33 7 282 292 221 285 125 254 187 195 119 353 228 239
61 41 26 18 13 8 5 1 357 355 349 356 52 59 267 321 67 48 114 203 4 42 28 11 294 308 315 321 299 266 261 65 348 323 335 304 195 278 341 205 206 221 256 226 172 173 239
63 40 32 22 16 11 7 5 1 355 351 39 90 51 310 356 56 44 90 330 344 6 12 353 52 20 338 347 297 279 278 66 1 351 14 315 285 258 255 254 231 207 223 184 192 255 227
61 50 37 26 19 15 10 7 4 359 9 69 68 320 329 53 97 13 335 4 57 11 24 10 4 51 25 335 311 270 346 111 25 13 4 341 300 311 316 333 31 243 335 351 313 11 215
66 54 39 30 24 19 14 8 5 4 11 84 72 34 346 39 31 93 27 10 13 11 71 357 2 71 25 4 359 307 316 330 340 337 330 349 273 250 242 266 349 293 296 299 233 269 290
76 59 43 32 27 23 19 11 8 9 12 85 30 97 189 14 24 57 68 19 17 3 2 21 93 48 339 283 289 254 324 327 311 304 333 340 266 298 293 301 306 285 275 293 265 256 251
84 64 49 36 30 27 23 20 12 11 25 78 92 89 20 43 12 60 11 19 58 346 289 40 20 321 277 244 258 306 307 293 268 284 257 200 277 297 278 293 284 274 278 277 268 307 277
86 62 48 40 36 33 29 28 27 15 37 81 0 50 94 334 39 81 89 335 30 352 319 221 256 286 267 295 301 274 267 272 266 276 288 281 268 269 273 288 279 281 350 271 87 35 334
89 73 57 43 38 37 36 34 35 36 47 101 129 102 81 86 87 113 138 253 283 322 242 281 306 221 260 310 300 280 262 263 275 285 198 251 263 253 254 299 245 89 49 65 69 41 35
95 71 61 55 46 43 39 39 42 45 48 72 80 86 91 105 121 148 232 278 312 293 259 261 268 257 294 290 282 300 304 329 62 192 253 232 256 257 248 205 119 23 2 327 320 61 21
95 82 64 44 49 47 41 45 48 53 64 63 39 97 85 111 248 107 40 15 320 304 336 270 306 309 317 279 296 268 303 309 316 311 274 325 358 313 328 246 273 27 315 312 208 93 11
110 81 55 57 51 47 41 40 41 46 70 92 341 79 88 107 252 143 191 197 173 200 241 297 316 333 9 342 283 335 283 298 300 300 320 315 318 30 302 317 91 345 323 315 24 354 342
109 78 58 53 47 37 30 34 35 28 82 91 274 25 110 141 272 219 202 162 258 172 225 279 358 328 0 344 295 317 272 297 299 277 308 358 322 326 315 308 332 353 11 52 338 313 328
107 91 63 45 48 31 17 17 20 359 351 119 73 330 132 250 238 237 243 220 199 214 164 242 209 244 238 77 273 303 271 283 214 279 349 13 357 299 4 34 28 37 70 32 343 328 330